Tracking 25710 objects as of 5-Jul-2022
HD Live streaming from Space Station
objects crossing your sky now

FENGYUN 1C DEB

Track FENGYUN 1C DEB now!
10-day predictions


NORAD ID: 46992
Int'l Code: 1999-025EZS
Perigee: 853.5 km
Apogee: 953.2 km
Inclination: 98.8 °
Period: 102.9 minutes
Semi major axis: 7274 km
RCS: Unknown
Launch date: May 10, 1999
Source: People's Republic of China (PRC)
Launch site: Taiyaun Space Center, China (TSC)

Note: This is SATELLITE DEBRIS
aabbcc
Your satellite tracking list
Your tracking list is empty




NASA's NSSDC Master Catalog

Two Line Element Set (TLE):
1 46992U 99025EZS 22183.84391087 -.00000128  00000-0 -58094-4 0  9994
2 46992  98.8433 194.5821 0068563  58.3198 302.4628 13.99301280433437
Source of the keplerian elements: AFSPC